Tracking 25963 objects as of 12-Aug-2022
HD Live streaming from Space Station
objects crossing your sky now

STARLINK-2616

Track STARLINK-2616 now!
10-day predictions
STARLINK-2616 is classified as:


NORAD ID: 48695
Int'l Code: 2021-044BK
Perigee: 553.2 km
Apogee: 555.6 km
Inclination: 53.1 °
Period: 95.6 minutes
Semi major axis: 6925 km
RCS: Unknown
Launch date: May 26, 2021
Source: United States (US)
Launch site: AIR FORCE EASTERN TEST RANGE (AFETR)
aabbcc
Your satellite tracking list
Your tracking list is empty




NASA's NSSDC Master Catalog

Two Line Element Set (TLE):
1 48695U 21044BK  22223.41727638 -.00002158  00000-0 -12606-3 0  9998
2 48695  53.0526 190.7603 0001766  71.2606 288.8574 15.06389704 68215
Source of the keplerian elements: AFSPC